RYR1UB LGTS-LROP

Flight info

Callsign RYR1UB
Flight time 0h 55m
Altitude 32000
Route ODIKO UM987 ATFIR DCT LARAT/N0422F310 DCT SOMOV DCT SORDU
Aircraft B738/M-SDGIJ1LRWY/SB1

Departure

Time 2026-05-06 08:43
Airport Thessaloniki Macedonia International Airport (LGTS)

Arrival

Time 2026-05-06 09:38
Airport Bucharest Henri Coandă International Airport (LROP)
Time Latitude Longitude Altitude Speed Heading
2026-05-06 08:11 40.52399 22.97457 10 ft 0 kts 46°
2026-05-06 08:32 40.52395 22.97452 9 ft 2 kts 46°
2026-05-06 08:33 40.52386 22.97440 9 ft 2 kts 45°
2026-05-06 08:33 40.52376 22.97426 9 ft 2 kts 44°
2026-05-06 08:33 40.52366 22.97414 9 ft 1 kts 44°
2026-05-06 08:33 40.52361 22.97408 9 ft 0 kts 58°
2026-05-06 08:34 40.52359 22.97401 9 ft 0 kts 117°
2026-05-06 08:34 40.52365 22.97393 9 ft 0 kts 135°
2026-05-06 08:36 40.52364 22.97395 9 ft 2 kts 135°
2026-05-06 08:37 40.52338 22.97429 9 ft 8 kts 134°
2026-05-06 08:37 40.52284 22.97502 10 ft 13 kts 135°
2026-05-06 08:37 40.52212 22.97595 11 ft 14 kts 136°
2026-05-06 08:37 40.52135 22.97668 12 ft 12 kts 141°
2026-05-06 08:38 40.52074 22.97744 12 ft 11 kts 135°
2026-05-06 08:38 40.52035 22.97822 13 ft 9 kts 90°
2026-05-06 08:38 40.52054 22.97900 13 ft 8 kts 69°
2026-05-06 08:38 40.52074 22.97967 14 ft 7 kts 68°
2026-05-06 08:39 40.52090 22.98022 14 ft 5 kts 68°
2026-05-06 08:39 40.52101 22.98088 15 ft 9 kts 98°
2026-05-06 08:39 40.52082 22.98201 15 ft 14 kts 104°
2026-05-06 08:39 40.52058 22.98315 16 ft 11 kts 116°
2026-05-06 08:40 40.51991 22.98325 16 ft 10 kts 193°
2026-05-06 08:40 40.51925 22.98312 16 ft 8 kts 161°
2026-05-06 08:40 40.51899 22.98377 16 ft 8 kts 104°
2026-05-06 08:40 40.51880 22.98476 17 ft 14 kts 104°
2026-05-06 08:41 40.51854 22.98613 18 ft 12 kts 104°
2026-05-06 08:41 40.51818 22.98701 18 ft 10 kts 161°
2026-05-06 08:41 40.51751 22.98692 18 ft 9 kts 191°
2026-05-06 08:41 40.51691 22.98674 18 ft 8 kts 194°
2026-05-06 08:42 40.51683 22.98625 18 ft 6 kts 281°
2026-05-06 08:42 40.51707 22.98494 18 ft 42 kts 283°
2026-05-06 08:42 40.51850 22.97743 13 ft 123 kts 284°
2026-05-06 08:42 40.52109 22.96367 114 ft 178 kts 282°
2026-05-06 08:43 40.52401 22.94822 1058 ft 176 kts 284°
2026-05-06 08:43 40.52735 22.93248 1779 ft 188 kts 285°
2026-05-06 08:43 40.53104 22.91544 2323 ft 203 kts 285°
2026-05-06 08:43 40.53489 22.89692 2888 ft 219 kts 285°
2026-05-06 08:44 40.53896 22.87721 3610 ft 229 kts 285°
2026-05-06 08:44 40.54313 22.85708 4501 ft 229 kts 285°
2026-05-06 08:44 40.54733 22.83690 5325 ft 233 kts 285°
2026-05-06 08:44 40.55156 22.81667 6149 ft 235 kts 286°
2026-05-06 08:45 40.55832 22.79740 6917 ft 239 kts 310°
2026-05-06 08:45 40.57142 22.78433 7768 ft 239 kts 338°
2026-05-06 08:45 40.58745 22.77949 8401 ft 243 kts 358°
2026-05-06 08:45 40.60429 22.78356 8919 ft 257 kts 24°
2026-05-06 08:46 40.62009 22.79535 9466 ft 270 kts 33°
2026-05-06 08:46 40.63519 22.81138 9991 ft 285 kts 44°
2026-05-06 08:46 40.64854 22.83108 10615 ft 296 kts 51°
2026-05-06 08:46 40.66048 22.85396 11080 ft 313 kts 58°
2026-05-06 08:47 40.67079 22.87965 11531 ft 329 kts 64°
2026-05-06 08:47 40.68082 22.90731 12050 ft 340 kts 56°
2026-05-06 08:47 40.69742 22.92946 12767 ft 342 kts 31°
2026-05-06 08:47 40.71885 22.94181 13521 ft 343 kts 16°
2026-05-06 08:48 40.74192 22.94982 14262 ft 347 kts 13°
2026-05-06 08:48 40.76533 22.95781 15038 ft 350 kts 14°
2026-05-06 08:48 40.78879 22.96722 15785 ft 353 kts 17°
2026-05-06 08:48 40.81171 22.97781 16523 ft 356 kts 18°
2026-05-06 08:49 40.83524 22.98955 17205 ft 360 kts 19°
2026-05-06 08:49 40.85833 23.00149 17886 ft 364 kts 19°
2026-05-06 08:49 40.88190 23.01381 18575 ft 367 kts 19°
2026-05-06 08:49 40.90575 23.02626 19269 ft 369 kts 19°
2026-05-06 08:50 40.92974 23.03873 19930 ft 372 kts 18°
2026-05-06 08:50 40.95353 23.05105 20576 ft 374 kts 18°
2026-05-06 08:50 40.97790 23.06365 21187 ft 377 kts 18°
2026-05-06 08:50 41.00236 23.07629 21803 ft 380 kts 18°
2026-05-06 08:51 41.02688 23.08896 22422 ft 382 kts 18°
2026-05-06 08:51 41.05186 23.10189 23031 ft 384 kts 18°
2026-05-06 08:51 41.07682 23.11480 23569 ft 387 kts 17°
2026-05-06 08:51 41.10184 23.12777 24115 ft 390 kts 17°
2026-05-06 08:52 41.12722 23.14093 24678 ft 393 kts 17°
2026-05-06 08:52 41.15274 23.15416 25162 ft 397 kts 17°
2026-05-06 08:52 41.17854 23.16757 25713 ft 398 kts 17°
2026-05-06 08:52 41.20451 23.18107 26253 ft 400 kts 17°
2026-05-06 08:53 41.23054 23.19461 26732 ft 403 kts 17°
2026-05-06 08:53 41.25641 23.20808 27246 ft 405 kts 17°
2026-05-06 08:53 41.28276 23.22182 27712 ft 407 kts 17°
2026-05-06 08:53 41.30899 23.23552 28401 ft 404 kts 17°
2026-05-06 08:54 41.33482 23.24907 29159 ft 398 kts 17°
2026-05-06 08:54 41.36053 23.26257 29813 ft 394 kts 16°
2026-05-06 08:54 41.38579 23.27582 30394 ft 393 kts 16°
2026-05-06 08:54 41.41104 23.28904 30920 ft 392 kts 16°
2026-05-06 08:55 41.43650 23.30236 31423 ft 391 kts 16°
2026-05-06 08:55 41.46191 23.31568 31913 ft 391 kts 16°
2026-05-06 08:55 41.48724 23.32895 32048 ft 394 kts 16°
2026-05-06 08:56 41.53757 23.35540 32055 ft 387 kts 16°
2026-05-06 08:56 41.58792 23.38188 32078 ft 390 kts 16°
2026-05-06 08:57 41.63827 23.40842 32093 ft 388 kts 16°
2026-05-06 08:57 41.68831 23.43486 32113 ft 388 kts 16°
2026-05-06 08:58 41.73835 23.46131 32126 ft 389 kts 16°
2026-05-06 08:58 41.78862 23.48793 32124 ft 389 kts 16°
2026-05-06 08:59 41.83873 23.51452 32120 ft 387 kts 16°
2026-05-06 08:59 41.88862 23.54111 32121 ft 387 kts 16°
2026-05-06 09:00 41.93881 23.56788 32116 ft 388 kts 16°
2026-05-06 09:00 41.98853 23.59446 32113 ft 387 kts 16°
2026-05-06 09:01 42.03864 23.62124 32117 ft 387 kts 16°
2026-05-06 09:01 42.08870 23.64804 32115 ft 388 kts 16°
2026-05-06 09:02 42.13896 23.67500 32107 ft 388 kts 17°
2026-05-06 09:02 42.18901 23.70189 32113 ft 385 kts 17°
2026-05-06 09:03 42.23890 23.72876 32113 ft 389 kts 17°
2026-05-06 09:03 42.28918 23.75584 32114 ft 388 kts 17°
2026-05-06 09:04 42.33929 23.78290 32107 ft 388 kts 17°
2026-05-06 09:04 42.38907 23.80986 32100 ft 388 kts 17°
2026-05-06 09:05 42.43929 23.83711 32091 ft 387 kts 17°
2026-05-06 09:05 42.48895 23.86421 32085 ft 388 kts 18°
2026-05-06 09:06 42.53750 23.89750 32080 ft 394 kts 24°
2026-05-06 09:06 42.58450 23.93543 32088 ft 394 kts 25°
2026-05-06 09:07 42.63134 23.97386 32095 ft 392 kts 25°
2026-05-06 09:07 42.67795 24.01181 32103 ft 392 kts 25°
2026-05-06 09:08 42.72497 24.04982 32107 ft 393 kts 25°
2026-05-06 09:08 42.77199 24.08777 32103 ft 393 kts 25°
2026-05-06 09:09 42.81908 24.12579 32083 ft 393 kts 25°
2026-05-06 09:09 42.86574 24.16355 32070 ft 392 kts 25°
2026-05-06 09:10 42.91255 24.20147 32062 ft 394 kts 25°
2026-05-06 09:10 42.95943 24.23953 32052 ft 392 kts 25°
2026-05-06 09:11 43.00633 24.27765 32040 ft 393 kts 26°
2026-05-06 09:11 43.05338 24.31596 32037 ft 394 kts 26°
2026-05-06 09:12 43.10015 24.35415 32033 ft 394 kts 25°
2026-05-06 09:12 43.14754 24.39288 32023 ft 393 kts 26°
2026-05-06 09:13 43.19444 24.43128 32019 ft 394 kts 26°
2026-05-06 09:13 43.24134 24.46976 32015 ft 393 kts 26°
2026-05-06 09:14 43.28753 24.50780 32006 ft 378 kts 26°
2026-05-06 09:14 43.30969 24.52613 31877 ft 367 kts 26°
2026-05-06 09:14 43.33139 24.54406 31574 ft 361 kts 26°
2026-05-06 09:14 43.35272 24.56165 31148 ft 358 kts 26°
2026-05-06 09:15 43.37398 24.57916 30704 ft 356 kts 26°
2026-05-06 09:15 43.39502 24.59649 30261 ft 354 kts 26°
2026-05-06 09:15 43.41625 24.61401 29799 ft 352 kts 26°
2026-05-06 09:15 43.43705 24.63121 29356 ft 350 kts 26°
2026-05-06 09:16 43.45788 24.64845 28910 ft 347 kts 26°
2026-05-06 09:16 43.47855 24.66557 28470 ft 345 kts 27°
2026-05-06 09:16 43.49893 24.68246 28034 ft 342 kts 27°
2026-05-06 09:16 43.51921 24.69929 27598 ft 340 kts 27°
2026-05-06 09:17 43.53936 24.71601 27161 ft 337 kts 27°
2026-05-06 09:17 43.55933 24.73261 26729 ft 334 kts 27°
2026-05-06 09:17 43.57924 24.74917 26298 ft 332 kts 27°
2026-05-06 09:17 43.59874 24.76540 25877 ft 329 kts 27°
2026-05-06 09:18 43.61836 24.78174 25454 ft 327 kts 28°
2026-05-06 09:18 43.63768 24.79785 25033 ft 324 kts 28°
2026-05-06 09:18 43.65688 24.81387 24606 ft 322 kts 28°
2026-05-06 09:18 43.67582 24.82974 24192 ft 320 kts 29°
2026-05-06 09:19 43.69509 24.84523 23594 ft 321 kts 19°
2026-05-06 09:19 43.71625 24.85509 22899 ft 325 kts 17°
2026-05-06 09:19 43.73679 24.86714 22517 ft 322 kts 25°
2026-05-06 09:19 43.75594 24.88338 22107 ft 321 kts 34°
2026-05-06 09:20 43.77334 24.90221 21697 ft 319 kts 36°
2026-05-06 09:20 43.79141 24.91998 21290 ft 316 kts 34°
2026-05-06 09:20 43.80838 24.93869 20887 ft 314 kts 38°
2026-05-06 09:20 43.82479 24.95853 20483 ft 312 kts 40°
2026-05-06 09:21 43.84076 24.97830 20082 ft 310 kts 40°
2026-05-06 09:21 43.85683 24.99822 19694 ft 308 kts 40°
2026-05-06 09:21 43.87265 25.01771 19294 ft 306 kts 40°
2026-05-06 09:21 43.88865 25.03722 18894 ft 304 kts 40°
2026-05-06 09:22 43.90451 25.05607 18509 ft 302 kts 39°
2026-05-06 09:22 43.92049 25.07476 18119 ft 300 kts 39°
2026-05-06 09:22 43.93643 25.09326 17740 ft 298 kts 39°
2026-05-06 09:22 43.95212 25.11141 17357 ft 296 kts 39°
2026-05-06 09:23 43.96793 25.12967 16978 ft 294 kts 39°
2026-05-06 09:23 43.98348 25.14760 16605 ft 292 kts 39°
2026-05-06 09:23 43.99910 25.16559 16227 ft 291 kts 39°
2026-05-06 09:23 44.01454 25.18335 15854 ft 289 kts 39°
2026-05-06 09:24 44.02996 25.20106 15481 ft 287 kts 39°
2026-05-06 09:24 44.04547 25.21884 15111 ft 285 kts 39°
2026-05-06 09:24 44.06063 25.23616 14748 ft 284 kts 39°
2026-05-06 09:24 44.07578 25.25344 14379 ft 282 kts 39°
2026-05-06 09:25 44.09094 25.27072 14023 ft 280 kts 39°
2026-05-06 09:25 44.10581 25.28767 13661 ft 279 kts 39°
2026-05-06 09:25 44.12089 25.30487 13300 ft 277 kts 39°
2026-05-06 09:25 44.13579 25.32188 12937 ft 276 kts 39°
2026-05-06 09:26 44.15050 25.33869 12577 ft 275 kts 39°
2026-05-06 09:26 44.16529 25.35560 12221 ft 274 kts 39°
2026-05-06 09:26 44.17998 25.37243 11864 ft 273 kts 39°
2026-05-06 09:26 44.19438 25.38896 11508 ft 272 kts 39°
2026-05-06 09:27 44.20905 25.40583 11153 ft 270 kts 39°
2026-05-06 09:27 44.22338 25.42235 10797 ft 270 kts 39°
2026-05-06 09:27 44.23770 25.43890 10447 ft 269 kts 39°
2026-05-06 09:27 44.25217 25.45568 10086 ft 268 kts 39°
2026-05-06 09:28 44.26635 25.47216 9729 ft 267 kts 39°
2026-05-06 09:28 44.28046 25.48856 9380 ft 266 kts 39°
2026-05-06 09:28 44.29468 25.50510 9029 ft 265 kts 39°
2026-05-06 09:28 44.30873 25.52151 8672 ft 264 kts 39°
2026-05-06 09:29 44.32290 25.53806 8319 ft 263 kts 39°
2026-05-06 09:29 44.33650 25.55458 7981 ft 263 kts 41°
2026-05-06 09:29 44.35010 25.57206 7619 ft 263 kts 41°
2026-05-06 09:29 44.36325 25.58923 7274 ft 262 kts 41°
2026-05-06 09:30 44.37656 25.60671 6922 ft 262 kts 41°
2026-05-06 09:30 44.38977 25.62414 6569 ft 262 kts 41°
2026-05-06 09:30 44.40291 25.64156 6220 ft 262 kts 41°
2026-05-06 09:30 44.41610 25.65911 5864 ft 261 kts 43°
2026-05-06 09:31 44.42917 25.67650 5512 ft 253 kts 43°
2026-05-06 09:31 44.44170 25.69304 5183 ft 246 kts 43°
2026-05-06 09:31 44.45394 25.70907 4981 ft 237 kts 43°
2026-05-06 09:31 44.46603 25.72485 4853 ft 239 kts 43°
2026-05-06 09:32 44.47825 25.74071 4590 ft 237 kts 43°
2026-05-06 09:32 44.49033 25.75629 4380 ft 235 kts 43°
2026-05-06 09:32 44.50235 25.77173 4121 ft 236 kts 43°
2026-05-06 09:32 44.51448 25.78721 3830 ft 235 kts 43°
2026-05-06 09:33 44.52648 25.80240 3578 ft 233 kts 43°
2026-05-06 09:33 44.53838 25.81745 3325 ft 229 kts 45°
2026-05-06 09:33 44.54716 25.83556 3102 ft 223 kts 72°
2026-05-06 09:33 44.54893 25.85642 2924 ft 212 kts 92°
2026-05-06 09:34 44.54897 25.87657 2801 ft 200 kts 87°
2026-05-06 09:34 44.55042 25.89571 2582 ft 196 kts 83°
2026-05-06 09:34 44.55215 25.91432 2346 ft 192 kts 84°
2026-05-06 09:34 44.55356 25.93247 2123 ft 187 kts 85°
2026-05-06 09:35 44.55489 25.95042 1899 ft 182 kts 84°
2026-05-06 09:35 44.55627 25.96775 1698 ft 173 kts 85°
2026-05-06 09:35 44.55754 25.98407 1466 ft 162 kts 84°
2026-05-06 09:35 44.55868 25.99901 1339 ft 150 kts 85°
2026-05-06 09:36 44.55977 26.01333 1101 ft 144 kts 85°
2026-05-06 09:36 44.56084 26.02701 958 ft 144 kts 85°
2026-05-06 09:36 44.56191 26.04107 780 ft 143 kts 84°
2026-05-06 09:36 44.56297 26.05484 598 ft 140 kts 85°
2026-05-06 09:37 44.56403 26.06835 453 ft 140 kts 84°
2026-05-06 09:37 44.56504 26.08187 323 ft 137 kts 82°
2026-05-06 09:37 44.56589 26.09297 307 ft 85 kts 83°
2026-05-06 09:37 44.56638 26.09938 307 ft 59 kts 84°
2026-05-06 09:38 44.56676 26.10436 306 ft 38 kts 83°
2026-05-06 09:38 44.56695 26.10677 306 ft 16 kts 80°
2026-05-06 09:38 44.56757 26.10763 306 ft 12 kts 359°
2026-05-06 09:38 44.56843 26.10752 306 ft 12 kts 353°
2026-05-06 09:39 44.56925 26.10738 306 ft 11 kts 353°
2026-05-06 09:39 44.56995 26.10712 307 ft 9 kts 326°
2026-05-06 09:39 44.57035 26.10642 307 ft 9 kts 301°
2026-05-06 09:39 44.57070 26.10522 308 ft 16 kts 276°
2026-05-06 09:40 44.57060 26.10367 308 ft 15 kts 264°
2026-05-06 09:40 44.57049 26.10219 309 ft 14 kts 264°
2026-05-06 09:40 44.57029 26.09954 310 ft 12 kts 264°
2026-05-06 09:41 44.57019 26.09834 310 ft 12 kts 263°
2026-05-06 09:41 44.57011 26.09730 310 ft 8 kts 264°
2026-05-06 09:41 44.56986 26.09689 310 ft 5 kts 180°
2026-05-06 09:41 44.56956 26.09693 310 ft 0 kts 174°